RH
17 23 21 19 18 15 14 14 14 15 19 16 13 13 12 11 11 14 14 15 17 18 18 18 18 19 21 17 15 14 14 13 13 13 12 12 11 12 12 12 13 17 17 17
19 22 23 21 19 17 16 15 15 16 18 16 13 12 11 13 15 16 17 19 20 20 21 19 21 21 18 15 15 15 14 14 14 13 13 12 11 12 13 16 19 21 21 19
21 23 23 20 19 16 19 16 17 18 18 16 15 12 12 16 16 19 21 21 21 21 22 22 21 18 16 16 16 14 14 15 15 16 17 16 16 17 18 18 19 21 21 21
24 24 22 20 19 17 15 22 21 19 18 16 16 11 10 14 19 22 22 22 22 22 21 19 16 16 17 16 15 17 19 20 19 18 17 16 17 18 18 19 20 21 21 21
27 25 23 20 23 21 20 24 22 23 23 22 18 25 14 18 20 19 20 20 19 19 18 16 15 16 16 17 20 21 21 22 21 21 19 17 17 18 18 19 20 21 22 23
28 27 25 25 26 24 24 21 22 25 28 35 26 28 20 18 18 18 19 20 19 18 16 15 15 16 17 19 20 20 22 23 23 21 18 17 17 18 20 22 22 22 23 25
25 27 28 26 25 26 23 26 37 41 39 31 37 34 20 17 20 19 19 20 20 19 17 17 19 20 21 21 21 22 23 22 21 20 20 21 23 24 25 26 28 30 33 37
27 34 29 29 28 27 26 24 32 30 25 20 26 25 22 18 18 18 19 22 22 22 21 21 23 25 24 24 24 25 24 23 22 24 25 25 26 27 29 31 31 36 38 40
21 27 33 33 32 30 29 30 24 27 27 24 19 17 13 15 15 19 21 23 23 23 23 23 24 23 23 24 25 25 24 24 27 28 28 28 30 32 33 35 37 41 40 38
22 30 34 37 36 34 31 26 27 27 24 20 15 14 20 20 16 20 22 23 24 23 23 23 22 22 23 25 27 27 27 30 32 32 33 35 39 38 42 45 46 45 43 42
23 20 30 33 32 28 30 28 27 23 19 15 11 15 13 19 19 20 22 22 22 21 22 21 22 22 24 27 31 32 33 36 39 39 42 44 44 46 49 48 46 43 41 40
22 17 22 23 29 28 28 24 20 18 17 22 18 15 11 14 15 17 18 20 22 22 23 23 27 30 34 36 39 40 41 44 44 46 50 52 53 54 52 48 45 43 41 38
21 17 16 15 21 24 26 24 22 20 21 24 14 11 12 14 17 21 24 27 29 30 32 33 36 38 42 44 46 49 51 53 56 58 59 59 59 58 54 47 43 41 40 38
16 15 13 13 12 18 21 23 22 21 29 16 16 12 15 23 28 30 32 34 36 42 47 48 51 53 57 59 61 64 64 65 65 64 63 63 61 55 47 40 36 33 31 30
17 16 18 15 14 17 18 20 27 33 26 29 25 34 38 42 45 51 55 56 58 59 60 62 62 64 65 66 68 70 71 71 70 68 66 62 53 44 37 33 31 31 30 29
22 22 28 33 38 41 44 43 47 47 51 52 54 52 55 54 57 56 55 56 57 59 61 62 63 66 69 71 74 77 77 74 71 68 63 53 47 41 35 32 32 32 31 33
46 47 56 56 54 54 51 47 50 51 52 56 60 59 60 61 59 59 60 60 59 59 60 62 64 68 68 68 69 70 70 69 69 66 59 53 50 45 41 38 37 36 35 34
53 54 56 57 55 59 44 45 48 51 53 55 58 60 60 60 61 62 63 63 62 61 61 64 67 68 70 72 74 75 75 74 73 69 63 58 54 51 46 43 40 38 38 38
52 53 57 61 60 49 45 46 48 50 52 56 59 63 65 66 65 66 66 68 70 71 72 74 75 76 78 79 80 80 80 80 80 74 64 62 60 54 48 44 40 39 37 33
56 58 60 65 71 62 52 54 57 57 61 66 70 70 72 73 75 75 77 79 78 79 80 82 84 85 86 86 86 86 84 84 80 71 64 59 53 49 44 40 37 34 30 28
62 64 67 68 71 62 60 61 64 70 70 75 78 81 82 82 86 85 85 83 81 79 78 80 83 85 85 86 88 88 81 75 67 62 58 53 46 42 40 36 35 31 29 27
63 68 70 73 77 74 64 63 68 75 80 85 89 92 91 89 87 85 81 78 75 74 75 76 75 77 77 81 81 75 70 66 58 52 46 40 36 34 33 32 31 29 27 26
64 61 66 70 67 71 75 79 87 92 93 92 89 86 85 83 82 80 77 72 69 67 66 64 62 64 62 60 56 51 49 44 39 36 34 32 30 30 32 33 33 32 32 31
63 68 71 75 73 79 85 90 91 90 86 85 84 81 77 75 72 69 66 60 56 52 49 49 48 43 41 40 38 36 34 33 32 32 33 34 34 34 37 37 37 34 33 33
68 70 73 78 87 92 91 88 88 85 81 76 73 71 67 62 58 57 54 51 50 49 43 40 37 37 39 41 42 42 44 43 40 39 39 38 38 35 34 34 33 33 32 33
71 74 83 86 88 85 84 84 83 81 75 66 58 51 47 44 42 40 39 38 36 34 34 36 39 42 44 46 47 48 47 47 43 39 37 37 38 37 37 36 31 29 29 29